This is the latest recevied weather packets stored in our database for station/object IR3ZXT. If no packets are shown the sender has not sent any weather packets the latest 10 day(s).
| Time | Temp. | Humidity | Pressure | Rain* | Wind** | Luminosity | Snow |
|---|---|---|---|---|---|---|---|
| 1787832316 | 20° C | 68% | 870.5 hPa | 0 mm | - | - | - |
| 1787832016 | 20° C | 69% | 870.4 hPa | 0 mm | - | - | - |
| 1787831716 | 20° C | 66% | 870.6 hPa | 0 mm | - | - | - |
| 1787831416 | 19.44° C | 64% | 870.4 hPa | 0 mm | - | - | - |
| 1787831116 | 19.44° C | 66% | 870.5 hPa | 0 mm | - | - | - |
| 1787830816 | 19.44° C | 69% | 870.6 hPa | 0 mm | - | - | - |
| 1787830516 | 19.44° C | 68% | 870.4 hPa | 0 mm | - | - | - |
| 1787830250 | 18.89° C | 71% | 870.6 hPa | 0 mm | - | - | - |
| 1787830216 | 18.89° C | 71% | 870.6 hPa | 0 mm | - | - | - |
| 1787829916 | 18.33° C | 71% | 870.7 hPa | 0 mm | - | - | - |
| 1787829616 | 18.33° C | 70% | 870.5 hPa | 0 mm | - | - | - |
| 1787829348 | 18.89° C | 69% | 870.6 hPa | 0 mm | - | - | - |
| 1787829316 | 18.89° C | 69% | 870.6 hPa | 0 mm | - | - | - |
| 1787829016 | 19.44° C | 68% | 870.5 hPa | 0 mm | - | - | - |
| 1787828716 | 19.44° C | 66% | 870.7 hPa | 0 mm | - | - | - |
| 1787828416 | 20° C | 64% | 870.6 hPa | 0 mm | - | - | - |
| 1787828148 | 20° C | 64% | 870.5 hPa | 0 mm | - | - | - |
| 1787828116 | 20° C | 64% | 870.5 hPa | 0 mm | - | - | - |
| 1787827816 | 20° C | 65% | 870.4 hPa | 0 mm | - | - | - |
| 1787827516 | 20° C | 65% | 870.5 hPa | 0 mm | - | - | - |
| 1787827216 | 19.44° C | 64% | 870.6 hPa | 0 mm | - | - | - |
| 1787826916 | 19.44° C | 66% | 870.5 hPa | 0 mm | - | - | - |
| 1787826648 | 19.44° C | 63% | 870.6 hPa | 0 mm | - | - | - |
| 1787826616 | 19.44° C | 63% | 870.6 hPa | 0 mm | - | - | - |
| 1787826316 | 19.44° C | 65% | 870.5 hPa | 0 mm | - | - | - |
* Rain latest hour (hover to see other rain measurements)
** Current wind speed in m/s (hover to see current wind gust speed)